Location: Biltmore Gardens
(41.6070°N, 83.4666°W)
Time: 00:02:41
(UTC+00:00)

N. Korean satellite - Pass Details

Date: 10 March 2021
Orbit: 453 x 499 km, 97.2° (Epoch: 11 April)

Event Time Altitude Azimuth Distance (km) Brightness Sun altitude
Rises 10:07:58 0° 28° (NNE) 2,552 10.8 -20.4°
Reaches altitude 10° 10:10:30 10° 47° (NE) 1,676 10.2 -20.0°
Maximum altitude 10:13:07 19° 94° (E) 1,229 9.5 -19.5°
Drops below altitude 10° 10:15:44 10° 141° (SE) 1,682 9.6 -19.0°
Sets 10:18:16 0° 159° (SSE) 2,565 10.4 -18.6°
